Location: Newark
(30.1000°N, 109.4667°E)
Time: 00:31:19
(UTC+00:00)

Transit 2A Rocket - All Passes

Search period start: 29 February 2020 00:00
Search period end: 10 March 2020 00:00
Orbit: 591 x 912 km, 66.7° (Epoch: 28 February)

Date Brightness Start Highest point End Pass type
(mag) Time Alt. Az. Time Alt. Az. Time Alt. Az.
29 Feb - 00:13:34 10° WNW 00:17:15 18° WSW 00:21:05 10° SSW daylight
29 Feb - 12:59:32 10° SW 13:03:44 61° WNW 13:08:05 10° NNE visible
29 Feb - 21:47:40 10° N 21:52:21 28° ENE 21:57:18 10° ESE visible
29 Feb - 23:29:57 10° NW 23:34:53 33° WSW 23:40:05 10° S daylight
01 Mar - 12:17:04 10° SSW 12:21:15 61° ESE 12:25:33 10° NNE visible
01 Mar - 21:06:12 10° NNE 21:09:35 16° NE 21:13:06 10° E visible
01 Mar - 22:47:00 10° NNW 22:52:26 61° WSW 22:58:15 10° S daylight
02 Mar - 11:35:15 10° SSE 11:38:52 27° ESE 11:42:33 10° NE visible
02 Mar - 13:18:18 10° WSW 13:21:21 19° WNW 13:24:29 10° N visible
02 Mar - 22:04:25 10° NNW 22:09:55 75° ENE 22:15:49 10° SSE visible
02 Mar - 23:50:11 10° W 23:52:00 12° WSW 23:53:53 10° WSW daylight
03 Mar - 10:54:37 10° SE 10:56:34 13° ESE 10:58:32 10° ENE daylight
03 Mar - 12:34:41 10° SW 12:38:38 37° WNW 12:42:44 10° N visible
03 Mar - 21:22:10 10° N 21:27:20 41° ENE 21:32:52 10° SE visible
03 Mar - 23:05:25 10° WNW 23:09:42 22° WSW 23:14:09 10° SSW daylight
04 Mar - 11:51:49 10° SSW 11:56:04 80° WNW 12:00:28 10° NNE visible
04 Mar - 20:40:17 10° N 20:44:40 24° ENE 20:49:15 10° ESE visible
04 Mar - 22:22:06 10° NW 22:27:18 41° WSW 22:32:49 10° S visible
05 Mar - 11:09:33 10° S 11:13:37 45° ESE 11:17:48 10° NE visible
05 Mar - 12:54:36 10° WNW 12:56:25 12° NW 12:58:15 10° NNW visible
05 Mar - 19:59:09 10° NNE 20:01:51 14° NE 20:04:37 10° E visible
05 Mar - 21:39:18 10° NNW 21:44:50 75° WSW 21:50:45 10° SSE visible
06 Mar - 10:28:02 10° SSE 10:31:16 21° ESE 10:34:34 10° ENE daylight
06 Mar - 12:10:08 10° WSW 12:13:36 24° WNW 12:17:11 10° N visible
06 Mar - 20:56:49 10° NNW 21:02:17 61° ENE 21:08:08 10° SE visible
06 Mar - 22:41:23 10° WNW 22:44:28 15° WSW 22:47:39 10° SW daylight
07 Mar - 11:26:49 10° SW 11:30:56 48° WNW 11:35:13 10° NNE visible
07 Mar - 20:14:41 10° N 20:19:40 34° ENE 20:24:58 10° SE visible
07 Mar - 21:57:24 10° NW 22:02:08 28° WSW 22:07:04 10° SSW visible
08 Mar - 10:44:10 10° SSW 10:48:25 78° ESE 10:52:49 10° NNE daylight
08 Mar - 19:32:58 10° N 19:36:56 20° ENE 19:41:06 10° ESE visible
08 Mar - 21:14:17 10° NW 21:19:42 51° WSW 21:25:26 10° S visible
09 Mar - 10:02:07 10° S 10:06:00 35° ESE 10:09:59 10° NE daylight
09 Mar - 11:46:00 10° W 11:48:38 16° NW 11:51:19 10° NNW visible
09 Mar - 18:52:30 10° NE 18:54:05 11° NE 18:55:42 10° ENE visible
09 Mar - 20:31:37 10° NNW 20:37:13 89° ENE 20:43:11 10° SSE visible
